Zurück zum Katalog

TITAN 3C TRANSTAGE DEB

AktivLEO
NORAD 1646·DEBRIS·🇺🇸 United States

Gestartet Oct 15, 1965 von Cape Canaveral Space Force Station

Loading…

Nächste Überflüge (nächste 24 Stunden)

TLE

AktuellSource: Space-Track

Epoche: Sep 14, 2026, 20:58 UTC

1 01646U 65082H   26257.87410637  .00000786  00000-0  10263-3 0  9992
2 01646  32.3086 170.2804 0002703 356.0805   3.9826 14.77635403233457

Verfolge TITAN 3C TRANSTAGE DEB in Echtzeit mit AllMySat

Download on the App Store